Retour au catalogue

FENGYUN 1C DEB

LostPO
NORAD 38826·DEBRIS·🇨🇳 China

Lancé May 10, 1999 depuis Taiyuan Satellite Launch Center

Loading…

Prochains Passages (prochaines 24 heures)

TLE

PériméSource: Space-Track

Époque: Dec 13, 2021, 02:18 UTC

1 38826U 99025EVS 21347.09638902  .00000747  00000-0  33755-3 0  9990
2 38826  99.8843 304.2173 0055028 295.6066  63.9429 14.24985456559239

Suivez FENGYUN 1C DEB en temps réel avec AllMySat

Download on the App Store